FW2245 Weather Reports


Display with metric or nautical units.
time (UTC)temp
F
wind
direction
speed
MPH
gust
MPH
rain 1hr
in
rain 24hr
in
rain mn
in
humidity
%
barometer
mb
20260506101549 44 24 0.0 4.0 0.02 1.45 0.41 95 1008.0
20260506100057 44 5 2.0 6.0 0.03 1.45 0.41 95 1007.4
20260506094536 45 355 1.0 7.0 0.04 1.45 0.41 95 1008.0
20260506093043 45 0 0.0 5.0 0.04 1.44 0.40 95 1008.7
20260506091539 44 0 0.0 2.0 0.03 1.43 0.39 95 1008.8
20260506090039 44 0 0.0 5.0 0.02 1.41 0.37 95 1008.5
20260506084558 44 360 1.0 5.0 0.05 1.41 0.37 95 1008.2
20260506083038 44 0 0.0 3.0 0.06 1.40 0.36 95 1008.3
20260506081547 44 0 0.0 4.0 0.10 1.40 0.36 95 1008.5
20260506073044 44 0 0.0 2.0 0.12 1.34 0.30 94 1008.5
20260506071538 45 0 0.0 2.0 0.09 1.30 0.26 94 1008.1
20260506061537 45 0 0.0 4.0 0.09 1.21 0.17 94 1008.2
20260506050203 46 0 0.0 5.0 0.06 1.10 0.06 94 1008.8
20260506041536 47 0 2.0 7.0 0.08 1.05 0.02 94 1008.9
20260506040042 47 5 2.0 8.0 0.08 1.04 0.00 94 1009.1
20260506034603 48 0 0.0 6.0 0.08 1.02 1.02 94 1009.2
20260506033039 48 5 1.0 5.0 0.09 1.00 1.00 94 1009.3
20260506031541 49 0 0.0 4.0 0.11 0.98 0.98 94 1009.5
20260506030039 49 355 0.0 3.0 0.13 0.96 0.96 94 1009.5
20260506024537 49 0 0.0 2.0 0.14 0.94 0.94 94 1009.6
20260506023052 49 0 0.0 2.0 0.15 0.91 0.91 94 1009.7
20260506021538 49 18 1.0 6.0 0.17 0.86 0.86 94 1009.2
20260506020039 49 5 1.0 5.0 0.20 0.83 0.83 94 1008.9
20260506014538 49 9 0.0 6.0 0.26 0.80 0.80 94 1008.7
20260506013040 49 0 1.0 5.0 0.26 0.76 0.76 93 1008.7
20260506011537 49 5 1.0 5.0 0.22 0.69 0.69 94 1008.9
20260506010042 49 0 2.0 8.0 0.16 0.62 0.62 93 1008.4
20260506004559 49 0 1.0 4.0 0.08 0.54 0.54 93 1008.6
20260506003046 50 14 2.0 8.0 0.04 0.49 0.49 93 1008.2
20260506001540 50 0 0.0 4.0 0.05 0.47 0.47 93 1008.2
20260506000037 51 15 0.0 4.0 0.07 0.46 0.46 93 1008.3
20260505234557 51 0 0.0 3.0 0.14 0.46 0.46 93 1008.1
20260505233039 51 0 0.0 6.0 0.30 0.45 0.45 92 1008.2
20260505231540 52 5 2.0 9.0 0.28 0.42 0.42 92 1008.3
20260505230042 53 14 3.0 10.0 0.26 0.39 0.39 92 1008.4
20260505224540 57 336 0.0 5.0 0.18 0.31 0.31 92 1008.5
20260505223037 57 0 0.0 3.0 0.02 0.15 0.15 92 1007.8
20260505221537 57 0 0.0 4.0 0.01 0.14 0.14 91 1007.7
20260505220054 57 296 0.0 3.0 0.00 0.13 0.13 91 1008.0
20260505214540 57 0 0.0 2.0 0.07 0.13 0.13 91 1008.0
20260505213037 57 300 0.0 6.0 0.07 0.13 0.13 90 1008.0
20260505211545 58 234 0.0 5.0 0.09 0.13 0.13 90 1007.9
20260505210037 58 0 0.0 8.0 0.12 0.13 0.13 89 1008.2
20260505204537 58 236 0.0 4.0 0.05 0.06 0.06 88 1008.1
20260505203040 59 0 0.0 4.0 0.05 0.06 0.06 87 1007.9
20260505201540 59 320 2.0 8.0 0.03 0.04 0.04 85 1007.9
20260505200038 60 0 0.0 7.0 0.00 0.01 0.01 82 1008.0
20260505194542 62 0 0.0 7.0 0.00 0.01 0.01 78 1007.9
20260505193044 64 297 0.0 10.0 0.00 0.01 0.01 74 1008.0
20260505191550 64 238 0.0 10.0 0.00 0.01 0.01 71 1008.0
20260505190040 64 165 1.0 5.0 0.00 0.01 0.01 71 1008.0
20260505184538 64 310 1.0 8.0 0.00 0.01 0.01 70 1008.2
20260505183037 64 0 1.0 5.0 0.00 0.01 0.01 69 1008.3
20260505181537 64 294 3.0 12.0 0.00 0.01 0.01 69 1008.4
20260505180045 64 267 2.0 10.0 0.00 0.01 0.01 67 1008.2
20260505174555 65 261 6.0 13.0 0.00 0.01 0.01 66 1008.1
20260505173037 65 269 3.0 12.0 0.00 0.01 0.01 65 1008.1
20260505171537 65 282 4.0 12.0 0.00 0.01 0.01 65 1008.1
20260505170046 66 208 3.0 15.0 0.00 0.01 0.01 64 1008.0
20260505164540 66 297 2.0 10.0 0.00 0.01 0.01 63 1008.0
20260505163043 66 306 2.0 10.0 0.00 0.01 0.01 62 1008.0
20260505161537 67 0 4.0 13.0 0.00 0.01 0.01 60 1008.0
20260505153051 69 192 4.0 15.0 0.00 0.01 0.01 59 1007.1
20260505151539 68 0 1.0 12.0 0.00 0.01 0.01 59 1006.9
20260505124536 59 239 3.0 10.0 0.00 0.01 0.01 77 1007.0
20260505123057 59 142 2.0 11.0 0.00 0.01 0.01 78 1006.8
20260505121536 59 178 1.0 12.0 0.01 0.01 0.01 79 1006.6
20260505120040 59 194 1.0 7.0 0.01 0.01 0.01 79 1006.4
20260505114551 59 172 2.0 5.0 0.01 0.01 0.01 78 1005.6
20260505113040 60 0 1.0 14.0 0.01 0.01 0.01 74 1005.7
20260505111554 61 167 3.0 13.0 0.00 0.00 0.00 69 1005.7